CAPE
0 0 0 0 0 0 0 0 0 0 0 0 0 0 0 0 0 0 0 0 0 0 0 0 0 0 0 0 0 0 0 0 0 0 0 0 19 600 1173 1443 1135 1665 2046 2300 2726 2652 3056 3298 3326 3346 3232 3122 2931 2750 2676 2678 2650 2672 2405 2335 2378 2527 2476 2432 2077 2018 1983 1974 1936 1968 2074 2149 2282 1862 1793 1928 1700 1728 1608 1617 1550 1545 1475 1636 1424 1474
0 0 0 0 0 0 0 0 0 0 0 0 0 0 0 0 0 0 0 0 0 0 0 0 0 0 0 0 0 0 0 0 0 0 0 0 7 339 1413 1130 1402 1451 2127 2417 2558 2890 3066 3100 3302 3234 3249 3215 2912 2925 2797 2685 2749 2612 2571 2501 2444 2514 2375 2334 2334 2352 1984 2113 1954 2095 2040 1949 1876 1776 1797 1628 1677 1847 1617 1889 1802 1758 1660 1746 1653 1891
0 0 0 0 0 0 0 0 0 0 0 0 0 0 0 0 0 0 0 0 0 0 0 0 0 0 0 0 0 0 0 0 0 0 0 42 41 1009 1273 1459 1828 2194 1887 2352 2504 2614 3056 3274 3302 3280 3360 3193 3059 2974 2905 2819 2707 2641 2566 2493 2361 2290 2321 2360 2129 2024 2054 2189 2109 1812 1909 1716 1769 2100 1850 1735 1557 1826 1933 1824 1828 2115 1884 1757 1759 1377
0 0 0 0 0 0 0 0 0 0 0 0 0 0 0 0 0 0 0 0 0 0 0 0 0 0 0 6 3 0 0 0 0 0 0 18 33 992 1422 1042 2192 2002 2068 2227 2340 2626 2995 2861 2794 3012 3167 3131 3064 2908 2840 2845 2671 2616 2555 2482 2371 2295 2308 2289 1931 1742 1923 1810 1720 2084 1921 1871 1733 1882 1837 2073 1888 1788 1964 2032 2130 1761 1981 1776 1747 1465
0 0 0 0 0 0 0 0 0 0 0 0 0 0 0 0 0 0 0 0 0 0 0 0 0 0 0 0 0 0 0 0 0 0 27 36 2 50 1410 1392 1886 1980 2189 2143 2181 2450 2700 2720 2706 2838 2690 2796 2747 2821 2674 2694 2769 2620 2559 2384 2288 2057 2158 2138 1926 1816 1987 1917 1608 1833 1781 1712 1828 1920 1910 1828 1904 1954 1913 2064 1998 2090 1996 1862 1858 1663
0 0 0 0 0 0 0 0 0 0 0 0 0 0 0 0 0 0 0 0 0 0 0 0 0 0 0 0 0 0 0 0 0 27 6 0 2 763 1394 1597 1718 1566 1557 1985 2213 2449 2511 2884 2762 2716 2585 2508 2625 2647 2648 2819 2528 2430 2303 2228 2026 2002 2246 2175 1912 1992 1880 1994 1969 2074 2063 2093 2141 2130 2180 2074 2079 2148 2163 2036 2190 1960 1991 1876 1712 1755
0 0 0 0 0 0 0 0 0 0 0 0 0 0 0 0 0 0 0 0 0 0 0 0 0 0 0 0 0 0 0 0 43 85 120 103 28 299 1002 1215 1552 1402 1674 1843 2180 2175 2246 2615 2571 2690 2688 2419 2236 2296 2445 2417 2372 2220 2103 1999 1689 2054 2091 1803 1705 1648 1731 1770 1741 1688 1657 1833 2214 2248 2187 2180 2152 2565 2429 2500 2589 2459 2238 2025 1943 1816
0 0 0 0 0 0 0 0 0 0 0 0 0 0 0 0 0 0 1 0 0 0 0 0 0 0 0 0 16 2 1 34 92 82 92 70 106 1204 1290 1512 1891 1758 1929 2062 1781 2192 2331 2309 2596 2495 2417 2273 2072 1979 1946 2015 1888 1854 1753 1667 1703 1908 1969 2069 1892 1928 1992 1879 1849 1744 1717 1882 2031 2088 2279 2232 2480 2423 2406 2275 2482 2352 2493 2370 1995 2090
0 0 0 0 0 0 0 0 0 0 0 0 0 0 0 0 0 0 1 0 0 0 0 0 0 0 1 1 0 24 0 0 1 1 0 0 25 1275 1449 1022 1404 1885 2123 1907 2030 2227 2098 2167 2126 2072 2115 1963 1846 1896 1879 1605 1770 1777 1762 1766 1625 1788 1808 1975 1986 1916 1815 1847 1860 2003 2036 1976 1899 2022 2172 1962 1951 2142 2260 2196 2262 2364 2147 2272 2237 1977
0 0 0 0 0 0 0 0 0 0 0 0 0 0 0 0 0 0 0 3 5 4 1 0 0 0 0 2 0 0 0 0 0 0 56 59 58 1384 1191 920 1048 1298 1476 1901 1882 1845 1927 1975 2079 2071 1934 1610 1562 1468 1539 1496 1566 1577 1534 1680 1618 1810 2006 2058 1998 1909 1885 2066 1983 1873 1833 1811 1926 2016 2073 1898 2197 2031 2096 2160 2335 2070 2078 2202 2233 2183
0 0 0 0 0 0 0 0 0 0 0 0 0 0 0 0 0 0 0 1 20 8 0 0 0 0 0 0 9 0 0 0 1 92 709 432 1090 1090 1077 937 1047 1107 1222 1542 1509 1593 1637 1720 1950 1934 1862 1705 1579 1476 1519 1671 1576 1664 1804 1718 1678 1967 2028 2109 2156 2091 2017 1888 1926 1904 1904 1941 1877 1892 1872 1821 1572 1874 1800 1885 1959 1963 1903 1842 1996 2162
1 1 0 0 0 0 0 0 0 0 0 0 0 0 0 0 0 0 0 0 11 0 0 0 0 0 0 0 0 3 0 0 238 747 620 672 698 997 932 983 1138 1132 1127 1133 1198 1250 1295 1455 1607 1578 1467 1447 1471 1395 1539 1492 1450 1396 1334 1428 1526 1688 1773 1862 1865 2056 2178 2129 2160 2036 2027 1996 2028 1910 1786 1746 1265 1139 1414 1445 1931 2107 1921 1606 1634 2000
0 6 1 0 0 0 3 0 0 0 0 0 0 0 0 0 0 0 0 0 0 0 0 0 0 0 0 269 1283 3 0 160 880 808 859 645 796 952 1048 1012 959 918 1062 1041 1055 895 1057 1116 1146 940 992 1048 1085 1145 1215 1331 1456 1195 1282 1339 1568 1571 1768 1841 1861 1822 1880 1931 2107 2221 2177 2145 2139 1866 1716 1551 1468 1415 1004 1061 1342 1718 1818 1800 1767 1768
0 0 0 0 0 0 0 0 0 0 0 0 0 0 0 1 0 0 0 0 0 0 0 0 0 5 441 1135 850 468 688 638 739 798 592 801 783 712 747 782 851 904 878 908 823 869 794 984 998 1010 968 962 938 977 1038 1171 1138 1049 1093 1088 1142 1187 1168 1134 1500 1569 1697 1824 1961 2054 2111 2157 1916 1776 1624 2052 1347 1298 1414 1268 1300 1449 1468 1517 1650 1437
6 1 0 0 0 0 0 0 0 0 0 0 0 0 0 0 0 0 0 0 0 0 0 0 0 1 462 1050 797 834 756 561 470 507 524 640 699 713 689 696 702 701 655 623 623 619 681 749 750 759 759 802 826 808 851 956 1087 1053 963 907 945 774 671 822 837 923 1138 1367 1512 1638 1768 1720 1720 1690 1658 1563 1655 1758 1677 1616 1551 1581 1682 1690 1507 1194
6 0 0 0 0 0 0 0 0 0 0 0 0 0 0 2 2 0 0 0 0 0 0 0 372 1156 918 850 823 630 508 432 566 636 495 515 440 470 461 532 541 574 591 546 505 527 611 620 578 579 579 585 587 636 747 969 1127 1126 1054 970 852 746 641 683 864 929 1012 1068 1204 1302 1303 1366 1266 1305 1319 1335 1456 1638 1856 1894 1818 1678 1653 1535 1395 1150
0 3 2 0 0 0 0 0 0 0 4 0 0 0 0 0 1 16 4 0 23 4 0 1 956 731 520 632 684 654 451 550 522 467 441 374 345 299 316 296 346 366 282 206 162 228 316 366 382 377 494 701 760 878 884 784 720 756 677 593 495 390 325 422 535 739 858 1006 1028 1122 1212 1256 1281 1274 1222 1282 1352 1489 1528 1612 1794 1485 1490 1419 1167 1007
2 5 0 2 3 0 0 0 0 0 0 1 0 0 0 0 3 34 2 2 0 2 1 0 804 718 645 170 229 112 575 506 458 460 360 347 250 219 197 261 213 203 112 54 46 16 36 306 410 457 534 627 511 548 538 476 456 414 352 230 226 228 262 278 280 503 718 899 1008 1099 1130 1138 1213 1182 1181 1285 1388 1441 1396 1430 1668 1593 1408 1084 1165 786
0 0 0 2 1 0 0 0 0 0 2 5 0 0 1 20 6 2 2 27 0 0 0 0 766 696 496 424 395 577 525 544 389 420 346 265 182 90 95 127 160 82 28 20 295 516 193 417 618 465 585 504 400 420 361 281 218 236 100 86 116 128 181 175 271 333 517 665 682 840 960 1014 1121 1175 1141 1119 1225 1257 1220 1258 1340 1367 1291 1094 1024 872
0 0 1 0 1 2 0 0 0 1 4 4 1 0 2 3 1 11 7 3 0 0 0 1 748 449 338 581 467 557 709 505 394 283 257 237 86 76 51 26 24 6 72 314 417 469 532 516 521 461 423 338 68 58 95 90 164 66 104 72 56 86 89 101 201 246 406 535 569 611 650 791 766 868 982 1079 1169 1161 1137 1190 1148 1046 961 954 947 854
0 0 4 0 0 7 4 0 0 1 2 2 3 10 2 0 2 0 4 1 1 0 0 0 5 296 345 526 488 645 796 550 446 383 258 151 91 90 76 50 36 28 182 362 464 420 389 348 299 138 117 93 42 119 194 140 71 33 26 25 12 19 26 40 80 92 184 304 405 503 558 602 661 724 735 827 979 1085 1066 1096 1076 1003 996 796 725 694
0 0 1 0 2 5 4 0 0 0 1 2 0 2 2 0 1 2 17 0 2 12 7 0 1 814 619 520 573 755 893 589 414 256 196 118 47 62 62 1 5 201 301 446 400 330 230 50 45 58 87 32 20 32 51 79 28 0 1 1 16 19 5 13 16 35 36 111 147 196 271 391 514 635 646 746 837 955 932 951 928 996 990 879 734 644
0 0 3 2 0 2 1 1 0 2 11 2 0 4 0 4 0 6 0 12 2 5 6 0 6 434 850 886 774 657 404 425 379 226 149 68 25 32 89 216 284 274 275 259 138 12 14 40 58 59 47 2 2 12 45 32 1 1 1 1 4 4 6 7 7 6 14 50 82 115 203 268 261 276 365 523 750 847 808 733 784 678 734 587 459 619
10 5 0 0 0 0 0 0 1 0 2 6 1 0 2 6 0 0 0 24 2 23 4 12 64 674 792 531 645 524 562 488 332 205 103 34 26 34 301 284 286 276 213 182 168 43 46 32 62 12 3 3 0 0 0 1 0 2 1 1 3 6 7 5 3 9 8 9 12 22 30 46 68 124 217 327 467 600 725 722 685 663 724 606 684 588
5 5 3 0 0 0 1 4 2 0 5 4 4 6 0 2 5 2 11 68 5 21 6 8 139 300 530 669 527 506 650 476 303 197 47 3 110 247 347 290 275 254 206 163 153 127 3 12 2 1 1 1 0 0 4 0 0 0 0 1 1 2 6 6 4 7 9 8 13 11 12 17 28 86 159 242 376 527 661 626 893 789 415 560 562 459
10 11 2 0 0 2 2 6 5 0 0 3 0 8 2 1 32 38 30 1 2 0 0 27 575 622 409 367 405 480 567 443 265 144 57 2 264 302 314 274 234 218 169 146 144 29 65 1 2 1 3 1 0 0 0 3 0 0 0 0 1 1 3 3 3 5 9 9 8 11 13 13 29 87 182 277 387 540 637 619 512 330 354 482 412 608
12 29 7 2 4 2 0 0 9 3 0 1 2 4 6 0 0 33 48 28 3 1 10 434 506 684 503 378 593 532 516 360 176 157 167 44 200 366 378 333 268 205 174 118 2 5 4 2 3 2 1 0 0 0 0 0 0 0 0 0 0 2 3 4 4 4 7 9 9 11 12 8 31 134 243 318 447 543 535 513 590 447 347 338 536 470
65 14 24 3 36 37 90 189 224 120 1 2 2 5 1 0 11 96 0 26 3 7 11 579 661 576 485 551 484 426 338 309 209 133 198 137 180 322 374 361 291 230 182 135 32 1 1 2 4 6 5 0 0 0 0 0 0 0 0 0 0 1 3 6 3 2 4 6 9 12 12 9 48 120 121 293 352 440 468 416 387 625 577 477 452 279
11 23 234 39 256 10 70 189 237 198 170 31 8 22 21 5 52 120 92 32 135 15 320 582 598 774 597 464 391 351 318 289 239 162 183 142 140 241 330 330 296 253 195 152 1 2 2 1 1 5 0 0 1 3 0 0 0 0 1 0 0 0 3 1 5 6 4 8 8 12 11 7 36 59 14 95 74 184 183 139 160 208 253 354 382 403
6 19 173 46 98 23 38 171 203 138 105 36 7 4 18 144 126 73 26 500 928 627 409 473 497 607 455 477 401 333 285 223 202 226 195 89 51 136 240 241 255 228 178 88 2 0 0 1 2 2 2 0 0 0 0 0 0 0 0 0 0 0 1 5 7 6 9 7 10 8 5 7 16 16 15 3 2 30 23 12 22 22 36 104 300 272
2 31 315 221 17 30 35 33 176 95 144 460 644 58 10 253 206 109 422 644 869 692 673 533 422 425 216 366 405 340 259 298 331 228 209 47 116 76 131 170 152 175 135 0 3 2 1 2 2 1 0 0 0 0 0 0 0 0 0 0 0 0 1 5 7 8 7 3 2 6 5 8 8 13 12 10 8 7 4 3 3 2 2 3 24 64
16 75 300 301 43 15 23 159 33 352 430 179 238 386 372 81 247 464 54 519 716 651 554 502 330 300 254 374 344 360 344 344 331 277 167 25 8 1 12 3 29 0 53 1 0 1 1 1 0 0 0 0 0 0 0 0 0 0 0 0 1 1 6 8 6 8 2 1 6 2 4 8 7 11 11 1 3 5 4 5 3 1 2 32 35 12
62 73 17 68 10 20 14 62 349 336 325 111 128 169 451 719 835 758 655 570 638 675 362 408 415 257 335 387 401 344 371 318 314 249 127 74 21 0 24 3 7 4 0 0 1 0 1 1 0 0 0 0 1 0 0 0 0 0 0 0 0 5 4 5 7 1 1 5 2 4 8 4 10 9 8 3 2 1 3 4 3 3 2 2 42 43
48 86 132 52 25 4 77 269 96 168 107 59 202 67 99 601 541 654 580 678 650 391 190 361 348 325 321 333 373 294 257 263 287 167 125 75 0 0 4 8 23 3 1 1 0 18 1 0 0 0 0 0 0 0 0 0 0 0 0 0 0 3 2 2 1 0 0 0 2 3 5 4 5 9 9 3 2 2 3 5 4 7 6 4 3 4
64 54 76 38 20 7 220 229 190 130 82 103 168 83 356 280 344 318 404 360 489 390 337 207 51 253 275 263 295 226 218 224 268 206 97 24 7 0 0 39 40 3 10 8 25 20 0 0 0 0 0 0 0 0 0 0 0 0 0 0 0 1 2 0 0 0 1 1 0 2 2 2 2 4 4 2 3 3 1 4 4 4 4 3 2 3
11 6 92 28 37 46 76 246 62 4 14 5 202 132 122 296 315 254 233 389 432 440 292 170 98 27 76 176 233 239 191 181 170 172 88 44 18 10 51 57 3 35 14 12 38 35 2 0 0 0 0 0 0 0 0 0 0 0 0 0 0 0 0 0 0 0 0 1 1 0 1 2 0 2 0 1 4 2 0 3 3 3 3 1 1 3
363 244 10 1 2 8 45 131 27 66 72 46 130 116 104 162 177 100 39 17 199 231 0 126 131 167 130 107 166 148 126 117 162 123 133 109 20 13 35 14 17 105 36 27 26 24 18 0 0 0 0 0 0 0 0 0 0 0 0 0 0 0 0 0 0 0 0 0 0 1 0 2 1 1 1 1 1 1 2 3 4 4 3 2 2 3
494 266 231 79 29 124 123 12 59 25 65 12 14 6 327 97 172 69 12 137 172 268 155 184 114 114 120 75 58 124 227 266 259 126 140 98 6 9 4 25 34 84 51 26 37 28 8 9 3 1 0 0 0 0 0 1 2 0 0 0 0 0 0 0 1 2 1 1 0 0 2 0 1 2 1 2 2 2 2 2 3 4 11 4 2 3
313 23 12 22 23 2 12 12 4 4 14 47 118 37 24 30 123 29 58 37 151 308 204 151 172 103 40 0 90 202 298 296 286 286 173 100 60 42 5 55 73 38 31 27 32 45 30 17 4 0 0 0 0 0 2 1 0 0 1 0 0 1 0 1 2 2 0 1 0 0 0 1 2 1 2 0 0 1 1 1 5 6 4 6 3 3
59 2 0 0 0 0 11 3 1 0 0 15 49 54 46 142 85 93 80 38 2 93 58 27 10 0 2 25 117 249 235 264 318 284 158 98 80 19 6 72 35 41 25 31 42 27 19 16 27 10 1 0 0 3 1 2 3 3 2 2 3 2 0 1 1 0 2 0 0 1 0 0 1 0 0 0 2 1 1 0 2 9 4 2 4 4
0 5 0 2 0 0 4 8 9 40 78 104 65 4 26 57 104 68 29 37 2 2 6 4 7 5 3 2 103 204 184 141 177 204 99 101 22 2 83 91 67 44 69 46 20 12 9 32 32 25 6 0 1 1 3 2 5 3 3 5 3 4 5 5 3 2 2 0 0 0 0 2 2 1 0 0 0 0 0 0 0 2 5 0 0 0
0 0 0 0 1 0 0 0 2 4 47 43 3 21 13 52 147 18 6 25 5 1 0 1 1 1 1 13 6 146 135 125 141 185 142 51 16 25 12 7 11 17 2 8 15 23 35 40 38 21 5 1 2 1 3 4 2 3 4 3 4 6 6 1 3 0 1 0 0 0 0 0 0 0 1 0 0 0 0 0 0 0 0 1 0 0
0 0 1 0 1 0 0 11 0 14 0 2 14 5 6 41 0 0 0 1 0 0 1 1 0 0 1 55 54 45 138 48 79 147 95 24 22 50 61 36 8 14 37 58 49 19 22 23 6 0 1 1 0 2 5 4 1 3 2 2 3 5 4 4 3 1 2 0 2 0 0 0 0 0 0 0 0 0 0 0 0 0 0 0 0 0
63 64 0 89 0 2 0 1 1 4 0 0 0 0 0 0 1 2 0 0 2 0 0 1 30 40 35 22 29 24 116 18 20 20 17 30 42 90 129 98 53 11 30 40 32 11 1 0 0 0 0 0 2 0 0 1 0 1 2 4 6 6 6 1 1 2 4 4 1 3 0 0 0 0 0 0 1 0 0 0 0 1 0 0 0 0
102 37 1 8 0 2 16 0 0 4 1 0 0 0 2 1 3 0 0 0 0 0 0 0 3 11 22 31 27 24 18 6 5 5 27 134 78 142 132 104 62 21 11 15 4 3 1 0 0 0 1 1 0 0 0 0 0 0 0 1 3 4 1 0 0 0 0 0 3 2 3 1 0 0 0 0 0 0 0 6 7 3 0 0 0 0
25 7 0 0 2 0 1 0 0 1 0 0 0 1 1 0 1 0 2 0 3 1 0 0 0 0 0 0 27 44 35 0 0 4 24 64 97 128 107 89 38 29 14 8 6 0 0 0 0 0 0 0 0 0 0 0 0 0 0 0 0 1 2 0 0 0 0 0 0 0 1 1 3 1 0 1 1 0 0 0 3 2 4 2 0 0
1 49 32 0 0 0 2 0 0 0 2 0 0 2 1 7 4 3 1 3 0 2 1 2 0 0 0 0 0 12 3 12 6 0 0 6 47 73 51 45 25 3 2 2 1 2 2 0 1 0 0 0 0 0 0 0 0 0 0 0 0 0 0 0 5 2 0 0 1 0 0 0 1 2 1 0 0 1 3 4 5 4 2 0 0 2
4 0 3 0 0 0 0 1 4 1 0 0 0 3 6 3 0 2 0 0 0 2 2 2 2 1 0 0 0 3 2 4 2 4 2 19 54 42 32 27 12 0 1 0 1 4 3 3 2 1 2 0 0 0 0 0 0 0 0 0 0 0 0 0 0 0 1 0 0 0 0 0 0 0 1 0 0 0 0 0 0 0 0 0 0 0
0 0 0 0 0 0 1 1 2 2 2 3 1 1 3 1 0 0 0 0 1 0 1 1 0 1 1 1 0 0 0 4 12 17 23 17 6 30 11 3 0 0 0 0 0 1 3 1 2 1 0 0 0 0 0 0 0 0 0 0 0 0 1 2 2 0 0 0 0 0 0 0 0 0 0 0 0 0 0 0 0 0 0 0 0 0
0 0 0 0 0 0 0 0 2 0 1 2 2 1 3 1 0 1 0 0 1 1 1 0 0 0 0 0 0 0 2 1 6 11 10 14 10 5 0 1 2 2 0 0 0 0 0 0 1 4 0 0 0 2 0 0 2 2 0 0 0 0 0 0 0 0 0 0 1 1 0 0 0 0 0 0 0 0 0 0 0 0 0 0 0 0
0 0 2 6 1 0 0 0 2 1 1 0 2 1 1 0 0 0 3 0 0 2 2 0 1 1 0 0 0 0 0 0 0 2 4 7 7 5 7 10 9 8 2 0 0 0 1 2 10 0 0 0 0 0 1 0 0 0 0 0 0 0 0 0 0 0 0 0 0 0 0 0 0 0 0 0 0 0 0 0 0 0 0 0 0 0
Wind_Speed
nan nan nan nan nan nan nan nan nan nan nan nan nan nan nan nan nan nan nan nan nan nan nan nan nan nan nan nan nan nan nan nan nan nan nan nan nan 33 41 39 41 38 27 23 22 22 23 21 19 19 17 18 17 16 17 18 20 21 23 22 24 23 22 21 20 19 18 19 21 21 22 23 27 28 29 31 31 30 31 32 33 35 33 32 33 32
nan nan nan nan nan nan nan nan nan nan nan nan nan nan nan nan nan nan nan nan nan nan nan nan nan nan nan nan nan nan nan nan nan nan nan nan nan 32 41 40 40 35 29 28 23 21 23 21 20 19 17 17 17 16 17 18 20 21 24 24 24 23 22 21 20 20 20 17 18 21 24 25 26 30 31 32 32 31 30 31 33 33 35 34 33 33
nan nan nan nan nan nan nan nan nan nan nan nan nan nan nan nan nan nan nan nan nan nan nan nan nan nan nan nan nan nan nan nan nan nan nan nan nan 38 39 39 38 35 31 29 24 23 25 24 23 19 17 17 17 18 18 19 22 23 24 23 23 23 24 22 21 17 19 20 21 21 23 23 24 28 30 29 32 34 33 33 34 35 36 34 33 34
nan nan nan nan nan nan nan nan nan nan nan nan nan nan nan nan nan nan nan nan nan nan nan nan nan nan nan nan nan nan nan nan nan nan nan nan nan 40 40 38 37 34 33 29 25 24 25 24 23 20 19 20 19 19 20 19 22 22 23 24 24 23 21 22 20 17 18 21 21 21 23 24 26 26 29 32 31 32 33 34 34 36 36 35 33 35
nan nan nan nan nan nan nan nan nan nan nan nan nan nan nan nan nan nan nan nan nan nan nan nan nan nan nan nan nan nan nan nan nan nan nan nan nan nan 42 39 36 34 32 31 27 25 21 21 22 23 21 20 18 19 20 20 21 21 24 24 24 22 21 19 21 18 17 20 21 22 23 25 26 28 26 29 32 34 34 34 35 34 35 34 32 33
nan nan nan nan nan nan nan nan nan nan nan nan nan nan nan nan nan nan nan nan nan nan nan nan nan nan nan nan nan nan nan nan nan nan nan nan nan 40 43 42 36 33 32 31 28 24 19 21 23 23 20 19 20 20 20 21 21 22 23 24 22 21 19 19 19 18 17 17 18 22 24 25 27 26 29 31 32 35 35 34 34 34 33 34 32 32
nan nan nan nan nan nan nan nan nan nan nan nan nan nan nan nan nan nan nan nan nan nan nan nan nan nan nan nan nan nan nan nan nan nan 21 19 nan 34 40 40 37 33 31 29 25 24 25 23 24 22 20 20 22 23 22 22 24 25 24 22 20 19 18 18 16 18 17 17 19 21 22 22 23 24 28 30 33 35 35 32 32 33 33 33 33 32
nan nan nan nan nan nan nan nan nan nan nan nan nan nan nan nan nan nan nan nan nan nan nan nan nan nan nan nan nan nan nan nan nan nan nan nan 20 41 42 42 40 34 35 34 28 28 28 25 23 23 25 24 22 21 22 22 22 24 22 22 19 18 15 16 17 16 17 17 20 22 24 24 23 26 29 32 34 35 35 33 33 33 32 32 32 33
nan nan nan nan nan nan nan nan nan nan nan nan nan nan nan nan nan nan nan nan nan nan nan nan nan nan nan nan nan nan nan nan nan nan nan nan nan 45 44 39 38 36 35 36 34 37 36 29 26 26 27 25 22 21 23 23 23 22 22 20 18 17 15 15 15 16 16 18 19 21 23 25 28 28 31 34 33 33 34 35 34 33 32 32 31 30
nan nan nan nan nan nan nan nan nan nan nan nan nan nan nan nan nan nan nan nan nan nan nan nan nan nan nan nan nan nan nan nan nan nan nan nan nan 45 47 45 43 38 36 39 37 37 34 29 27 26 26 24 22 20 20 21 22 21 20 19 17 17 16 16 16 16 16 17 20 22 22 24 26 29 32 34 35 32 32 31 32 32 31 30 31 31
nan nan nan nan nan nan nan nan nan nan nan nan nan nan nan nan nan nan nan nan nan nan nan nan nan nan nan nan nan nan nan nan nan nan 37 33 44 45 46 45 41 37 30 36 35 35 33 29 27 24 25 23 20 19 20 21 21 22 20 19 18 17 17 16 16 15 16 19 21 23 24 24 27 29 31 34 31 29 28 30 31 31 31 31 30 32
nan nan nan nan nan nan nan nan nan nan nan nan nan nan nan nan nan nan nan nan nan nan nan nan nan nan nan nan nan nan nan nan 46 52 46 26 38 38 39 41 39 41 42 40 38 36 34 30 27 26 26 24 22 21 21 20 21 21 20 20 19 19 18 18 17 18 19 19 20 24 25 26 27 30 32 33 31 29 27 26 27 31 32 32 32 32
nan nan nan nan nan nan nan nan nan nan nan nan nan nan nan nan nan nan nan nan nan nan nan nan nan nan nan 27 36 nan nan 44 58 54 45 39 39 39 41 42 43 42 41 39 37 35 32 30 29 27 26 24 22 21 20 21 22 21 21 19 20 20 19 18 18 18 18 21 23 24 25 25 28 30 33 30 31 31 30 28 29 31 31 32 34 34
nan nan nan nan nan nan nan nan nan nan nan nan nan nan nan nan nan nan nan nan nan nan nan nan nan nan 37 38 43 47 55 54 52 52 49 47 41 38 37 38 42 41 39 38 37 35 34 32 29 27 27 26 24 23 22 23 23 22 22 22 22 20 20 20 20 19 20 21 23 24 24 27 30 30 31 33 33 31 32 33 32 33 34 33 32 36
nan nan nan nan nan nan nan nan nan nan nan nan nan nan nan nan nan nan nan nan nan nan nan nan nan nan 42 41 45 50 50 53 50 51 51 49 44 40 37 39 40 39 37 37 36 34 33 32 30 28 26 24 23 23 23 23 24 24 24 23 22 21 21 21 20 21 22 23 25 26 26 28 31 30 31 31 32 33 34 35 34 34 34 32 31 40
nan nan nan nan nan nan nan nan nan nan nan nan nan nan nan nan nan nan nan nan nan nan nan nan 28 43 48 48 50 50 50 51 55 54 50 44 40 38 37 37 35 35 35 34 34 33 31 31 29 27 25 25 24 25 24 26 25 25 25 24 23 22 21 22 22 23 23 23 24 25 26 28 29 29 29 30 31 31 34 35 33 30 30 29 30 35
nan nan nan nan nan nan nan nan nan nan nan nan nan nan nan nan nan nan nan nan nan nan nan nan 39 42 46 51 50 55 55 53 50 48 45 43 40 38 37 34 32 34 33 33 33 31 31 30 29 27 27 25 25 25 25 25 25 26 26 25 23 24 24 23 23 23 24 24 24 25 26 27 27 27 27 29 29 30 32 33 35 32 30 30 29 29
nan nan nan nan nan nan nan nan nan nan nan nan nan nan nan nan nan nan nan nan nan nan nan nan 38 39 39 43 44 41 49 47 46 43 43 43 42 41 37 34 33 33 32 nan nan nan nan 29 29 28 27 27 26 26 26 26 27 26 26 26 24 25 25 25 24 23 24 24 23 23 25 26 25 25 27 29 30 31 31 32 34 36 35 32 28 29
nan nan nan nan nan nan nan nan nan nan nan nan nan nan nan nan nan nan nan nan nan nan nan nan 35 37 34 43 43 42 43 44 43 42 41 41 42 nan nan 37 36 nan nan nan 30 30 30 30 29 30 30 29 28 27 27 28 27 28 28 nan 26 26 26 25 24 24 23 24 24 24 23 22 22 24 26 28 28 29 29 30 33 35 37 34 28 25
nan nan nan nan nan nan nan nan nan nan nan nan nan nan nan nan nan nan nan nan nan nan nan nan 26 32 33 38 37 39 40 41 41 40 40 41 nan nan nan nan nan nan nan 30 30 32 31 31 32 32 31 31 nan nan nan nan 29 nan 28 nan nan nan nan 26 25 24 24 24 23 22 21 21 21 23 24 24 26 28 28 30 32 32 33 30 24 23
nan nan nan nan nan nan nan nan nan nan nan nan nan nan nan nan nan nan nan nan nan nan nan nan nan 30 37 34 33 33 39 41 41 40 41 40 nan nan nan nan nan nan 32 31 32 33 33 33 33 32 32 nan nan 30 31 31 nan nan nan nan nan nan nan nan nan nan 24 22 22 21 21 21 22 22 23 23 24 27 28 30 32 33 33 26 22 19
nan nan nan nan nan nan nan nan nan nan nan nan nan nan nan nan nan nan nan nan nan nan nan nan nan 37 36 40 30 34 41 45 43 45 43 40 nan nan nan nan nan 36 35 34 34 33 34 nan nan nan nan nan nan nan nan nan nan nan nan nan nan nan nan nan nan nan nan 23 22 22 20 20 22 23 23 22 24 26 27 27 29 31 31 24 19 18
nan nan nan nan nan nan nan nan nan nan nan nan nan nan nan nan nan nan nan nan nan nan nan nan nan 31 37 37 44 44 40 43 42 43 44 nan nan nan nan 37 37 36 35 34 34 nan nan nan nan nan nan nan nan nan nan nan nan nan nan nan nan nan nan nan nan nan nan nan nan 21 21 21 21 22 22 21 23 24 25 25 26 28 27 21 18 16
nan nan nan nan nan nan nan nan nan nan nan nan nan nan nan nan nan nan nan nan nan nan nan nan nan 35 39 38 45 47 42 41 37 38 42 nan nan nan 37 36 36 36 36 34 34 nan nan nan nan nan nan nan nan nan nan nan nan nan nan nan nan nan nan nan nan nan nan nan nan nan nan nan nan 21 21 21 22 22 23 23 25 26 24 20 18 15
nan nan nan nan nan nan nan nan nan nan nan nan nan nan nan nan nan nan nan nan nan nan nan nan 27 32 35 37 42 44 42 39 38 35 nan nan 35 34 33 33 34 35 34 35 39 40 nan nan nan nan nan nan nan nan nan nan nan nan nan nan nan nan nan nan nan nan nan nan nan nan nan nan nan nan 20 20 20 20 21 22 23 25 22 19 16 15
nan nan nan nan nan nan nan nan nan nan nan nan nan nan nan nan nan nan nan nan nan nan nan nan 34 36 35 37 41 40 39 38 37 35 nan nan 36 34 33 34 35 36 38 40 41 nan nan nan nan nan nan nan nan nan nan nan nan nan nan nan nan nan nan nan nan nan nan nan nan nan nan nan nan nan 19 18 19 19 21 22 23 22 22 21 18 14
nan nan nan nan nan nan nan nan nan nan nan nan nan nan nan nan nan nan nan nan nan nan nan 32 34 37 34 39 39 37 37 36 35 34 34 nan 35 37 36 35 36 38 40 41 nan nan nan nan nan nan nan nan nan nan nan nan nan nan nan nan nan nan nan nan nan nan nan nan nan nan nan nan nan 19 19 18 17 18 20 22 23 23 21 20 20 17
nan nan nan nan nan nan nan 34 30 22 nan nan nan nan nan nan nan nan nan nan nan nan nan 29 36 36 34 38 38 38 38 35 33 32 33 33 33 35 36 35 37 39 39 39 nan nan nan nan nan nan nan nan nan nan nan nan nan nan nan nan nan nan nan nan nan nan nan nan nan nan nan nan nan 19 19 18 19 20 20 22 22 20 21 20 18 18
nan nan 28 nan 28 nan nan 35 37 35 39 nan nan nan nan nan nan 21 nan nan 25 nan 29 23 30 36 35 38 39 39 35 31 29 29 30 32 32 33 34 35 36 38 38 40 nan nan nan nan nan nan nan nan nan nan nan nan nan nan nan nan nan nan nan nan nan nan nan nan nan nan nan nan nan nan nan nan nan 21 21 21 22 20 19 19 19 18
nan nan 33 nan nan nan nan 29 32 36 37 nan nan nan nan 26 24 nan nan 38 44 42 35 34 34 40 38 38 39 35 31 28 25 25 28 nan nan 30 33 35 36 36 37 nan nan nan nan nan nan nan nan nan nan nan nan nan nan nan nan nan nan nan nan nan nan nan nan nan nan nan nan nan nan nan nan nan nan nan nan nan nan nan nan 18 18 18
nan nan 28 33 nan nan nan nan 32 nan 37 41 38 nan nan 39 46 40 46 46 48 44 42 40 39 38 35 38 38 35 31 29 26 26 28 nan 28 nan 31 32 33 34 35 nan nan nan nan nan nan nan nan nan nan nan nan nan nan nan nan nan nan nan nan nan nan nan nan nan nan nan nan nan nan nan nan nan nan nan nan nan nan nan nan nan nan nan
nan nan 29 36 nan nan nan 24 nan 41 41 35 41 50 48 nan 42 49 nan 40 39 39 38 38 40 36 31 32 35 34 30 25 25 27 28 nan nan nan nan nan nan nan nan nan nan nan nan nan nan nan nan nan nan nan nan nan nan nan nan nan nan nan nan nan nan nan nan nan nan nan nan nan nan nan nan nan nan nan nan nan nan nan nan nan nan nan
nan nan nan nan nan nan nan nan 35 36 40 35 39 47 45 46 45 47 45 38 38 39 38 31 31 35 32 29 31 28 25 24 24 23 25 nan nan nan nan nan nan nan nan nan nan nan nan nan nan nan nan nan nan nan nan nan nan nan nan nan nan nan nan nan nan nan nan nan nan nan nan nan nan nan nan nan nan nan nan nan nan nan nan nan nan nan
nan nan 34 nan nan nan nan 40 nan 34 27 nan 38 nan nan 43 46 49 44 44 47 43 38 32 26 26 29 27 27 24 24 25 25 26 26 nan nan nan nan nan nan nan nan nan nan nan nan nan nan nan nan nan nan nan nan nan nan nan nan nan nan nan nan nan nan nan nan nan nan nan nan nan nan nan nan nan nan nan nan nan nan nan nan nan nan nan
nan nan nan nan nan nan 36 40 37 28 nan 35 32 nan 39 39 46 49 46 46 43 43 45 41 nan 20 20 22 24 26 25 25 26 27 nan nan nan nan nan nan nan nan nan nan nan nan nan nan nan nan nan nan nan nan nan nan nan nan nan nan nan nan nan nan nan nan nan nan nan nan nan nan nan nan nan nan nan nan nan nan nan nan nan nan nan nan
nan nan nan nan nan nan nan 32 nan nan nan nan 32 37 42 42 44 47 45 44 43 37 35 36 nan nan nan 22 21 21 23 24 26 25 nan nan nan nan nan nan nan nan nan nan nan nan nan nan nan nan nan nan nan nan nan nan nan nan nan nan nan nan nan nan nan nan nan nan nan nan nan nan nan nan nan nan nan nan nan nan nan nan nan nan nan nan
39 33 nan nan nan nan nan 30 nan nan nan nan 28 29 31 33 35 nan nan nan 36 31 nan 34 32 28 27 25 24 24 25 26 26 25 25 26 nan nan nan nan nan 33 nan nan nan nan nan nan nan nan nan nan nan nan nan nan nan nan nan nan nan nan nan nan nan nan nan nan nan nan nan nan nan nan nan nan nan nan nan nan nan nan nan nan nan nan
42 38 44 nan nan 35 32 nan nan nan nan nan nan nan 29 nan 35 nan nan 31 30 31 30 30 29 28 28 nan nan 23 21 26 23 20 22 nan nan nan nan nan nan nan nan nan nan nan nan nan nan nan nan nan nan nan nan nan nan nan nan nan nan nan nan nan nan nan nan nan nan nan nan nan nan nan nan nan nan nan nan nan nan nan nan nan nan nan
45 nan nan nan nan nan nan nan nan nan nan nan 23 nan nan nan 22 nan nan nan 26 26 26 26 27 26 nan nan nan 19 19 20 17 16 18 21 nan nan nan nan nan nan nan nan nan nan nan nan nan nan nan nan nan nan nan nan nan nan nan nan nan nan nan nan nan nan nan nan nan nan nan nan nan nan nan nan nan nan nan nan nan nan nan nan nan nan
nan nan nan nan nan nan nan nan nan nan nan nan nan nan nan 29 nan nan nan nan nan nan nan nan nan nan nan nan 20 18 21 19 17 18 20 nan nan nan nan nan nan nan nan nan nan nan nan nan nan nan nan nan nan nan nan nan nan nan nan nan nan nan nan nan nan nan nan nan nan nan nan nan nan nan nan nan nan nan nan nan nan nan nan nan nan nan
nan nan nan nan nan nan nan nan nan nan nan 19 nan nan nan nan 25 nan nan nan nan nan nan nan nan nan nan nan 19 22 22 24 26 26 nan 30 nan nan nan nan nan nan nan nan nan nan nan nan nan nan nan nan nan nan nan nan nan nan nan nan nan nan nan nan nan nan nan nan nan nan nan nan nan nan nan nan nan nan nan nan nan nan nan nan nan nan
nan nan nan nan nan nan nan nan nan nan nan nan nan nan nan nan 22 nan nan nan nan nan nan nan nan nan nan nan nan 30 31 36 35 32 31 nan nan nan nan nan nan nan nan nan nan nan nan nan nan nan nan nan nan nan nan nan nan nan nan nan nan nan nan nan nan nan nan nan nan nan nan nan nan nan nan nan nan nan nan nan nan nan nan nan nan nan
nan nan nan nan nan nan nan nan nan nan nan nan nan nan nan nan nan nan nan nan nan nan nan nan nan nan nan nan nan nan 37 nan nan 34 nan nan nan nan nan nan nan nan nan nan nan nan nan nan nan nan nan nan nan nan nan nan nan nan nan nan nan nan nan nan nan nan nan nan nan nan nan nan nan nan nan nan nan nan nan nan nan nan nan nan nan nan
nan nan nan nan nan nan nan nan nan nan nan nan nan nan nan nan nan nan nan nan nan nan nan nan nan nan nan nan nan nan 36 nan nan nan nan nan nan nan 36 nan nan nan nan nan nan nan nan nan nan nan nan nan nan nan nan nan nan nan nan nan nan nan nan nan nan nan nan nan nan nan nan nan nan nan nan nan nan nan nan nan nan nan nan nan nan nan
23 nan nan nan nan nan nan nan nan nan nan nan nan nan nan nan nan nan nan nan nan nan nan nan nan nan nan nan nan nan nan nan nan nan nan 36 nan 36 36 36 nan nan nan nan nan nan nan nan nan nan nan nan nan nan nan nan nan nan nan nan nan nan nan nan nan nan nan nan nan nan nan nan nan nan nan nan nan nan nan nan nan nan nan nan nan nan
nan nan nan nan nan nan nan nan nan nan nan nan nan nan nan nan nan nan nan nan nan nan nan nan nan nan nan nan nan nan nan nan nan nan nan nan nan 36 35 nan nan nan nan nan nan nan nan nan nan nan nan nan nan nan nan nan nan nan nan nan nan nan nan nan nan nan nan nan nan nan nan nan nan nan nan nan nan nan nan nan nan nan nan nan nan nan
nan nan nan nan nan nan nan nan nan nan nan nan nan nan nan nan nan nan nan nan nan nan nan nan nan nan nan nan nan nan nan nan nan nan nan nan nan nan nan nan nan nan nan nan nan nan nan nan nan nan nan nan nan nan nan nan nan nan nan nan nan nan nan nan nan nan nan nan nan nan nan nan nan nan nan nan nan nan nan nan nan nan nan nan nan nan
nan nan nan nan nan nan nan nan nan nan nan nan nan nan nan nan nan nan nan nan nan nan nan nan nan nan nan nan nan nan nan nan nan nan nan nan nan nan nan nan nan nan nan nan nan nan nan nan nan nan nan nan nan nan nan nan nan nan nan nan nan nan nan nan nan nan nan nan nan nan nan nan nan nan nan nan nan nan nan nan nan nan nan nan nan nan
nan nan nan nan nan nan nan nan nan nan nan nan nan nan nan nan nan nan nan nan nan nan nan nan nan nan nan nan nan nan nan nan nan nan nan nan nan nan nan nan nan nan nan nan nan nan nan nan nan nan nan nan nan nan nan nan nan nan nan nan nan nan nan nan nan nan nan nan nan nan nan nan nan nan nan nan nan nan nan nan nan nan nan nan nan nan
nan nan nan nan nan nan nan nan nan nan nan nan nan nan nan nan nan nan nan nan nan nan nan nan nan nan nan nan nan nan nan nan nan nan nan nan nan nan nan nan nan nan nan nan nan nan nan nan nan nan nan nan nan nan nan nan nan nan nan nan nan nan nan nan nan nan nan nan nan nan nan nan nan nan nan nan nan nan nan nan nan nan nan nan nan nan
nan nan nan nan nan nan nan nan nan nan nan nan nan nan nan nan nan nan nan nan nan nan nan nan nan nan nan nan nan nan nan nan nan nan nan nan nan nan nan nan nan nan nan nan nan nan nan nan nan nan nan nan nan nan nan nan nan nan nan nan nan nan nan nan nan nan nan nan nan nan nan nan nan nan nan nan nan nan nan nan nan nan nan nan nan nan
Wind_Direction
nan nan nan nan nan nan nan nan nan nan nan nan nan nan nan nan nan nan nan nan nan nan nan nan nan nan nan nan nan nan nan nan nan nan nan nan nan 272 265 262 261 265 274 272 265 262 260 260 262 266 267 267 266 265 265 266 270 274 275 277 280 285 291 291 288 290 290 298 305 306 309 312 315 315 315 315 313 317 317 321 319 321 321 321 320 320
nan nan nan nan nan nan nan nan nan nan nan nan nan nan nan nan nan nan nan nan nan nan nan nan nan nan nan nan nan nan nan nan nan nan nan nan nan 275 268 271 269 271 265 266 262 259 256 257 262 264 265 270 272 265 264 265 267 269 272 275 281 288 286 279 277 282 287 292 295 299 304 306 310 312 314 315 315 314 317 317 317 318 320 320 319 315
nan nan nan nan nan nan nan nan nan nan nan nan nan nan nan nan nan nan nan nan nan nan nan nan nan nan nan nan nan nan nan nan nan nan nan nan nan 269 272 271 272 273 272 271 267 263 259 257 257 257 255 258 257 258 257 260 265 267 271 278 282 286 288 280 276 280 290 285 287 293 296 302 304 306 307 308 311 315 315 318 318 317 316 319 319 317
nan nan nan nan nan nan nan nan nan nan nan nan nan nan nan nan nan nan nan nan nan nan nan nan nan nan nan nan nan nan nan nan nan nan nan nan nan 274 279 278 276 276 275 274 273 268 271 270 265 257 254 251 248 250 254 254 263 266 272 278 283 285 281 277 278 272 275 282 286 298 302 302 306 305 306 309 310 311 314 317 318 319 321 323 322 320
nan nan nan nan nan nan nan nan nan nan nan nan nan nan nan nan nan nan nan nan nan nan nan nan nan nan nan nan nan nan nan nan nan nan nan nan nan nan 269 269 271 276 273 271 269 266 267 268 271 268 261 256 252 250 253 254 260 266 275 282 286 282 278 277 280 282 281 287 298 301 303 304 304 307 310 308 310 312 314 318 319 321 320 322 321 320
nan nan nan nan nan nan nan nan nan nan nan nan nan nan nan nan nan nan nan nan nan nan nan nan nan nan nan nan nan nan nan nan nan nan nan nan nan 262 271 269 269 266 267 269 269 265 263 262 265 265 263 259 256 251 251 257 262 269 276 281 279 275 272 275 281 285 288 296 299 302 304 306 307 308 310 310 309 310 314 318 319 321 321 321 320 318
nan nan nan nan nan nan nan nan nan nan nan nan nan nan nan nan nan nan nan nan nan nan nan nan nan nan nan nan nan nan nan nan nan nan 260 251 nan 259 257 262 260 261 263 268 267 261 260 262 264 261 259 260 257 253 254 260 266 271 278 279 275 270 270 275 278 286 293 298 300 301 299 299 299 299 299 299 301 304 309 317 321 320 319 319 318 317
nan nan nan nan nan nan nan nan nan nan nan nan nan nan nan nan nan nan nan nan nan nan nan nan nan nan nan nan nan nan nan nan nan nan nan nan 255 254 249 245 248 252 255 258 262 260 260 259 258 257 248 249 252 259 261 264 270 277 280 277 273 269 271 279 283 289 297 298 300 301 300 299 298 300 299 298 300 305 313 319 321 317 312 314 315 316
nan nan nan nan nan nan nan nan nan nan nan nan nan nan nan nan nan nan nan nan nan nan nan nan nan nan nan nan nan nan nan nan nan nan nan nan nan 255 257 259 256 247 249 251 251 253 257 255 248 246 247 248 250 254 262 268 272 278 280 280 276 276 278 281 286 286 291 295 292 292 295 300 304 303 301 302 304 312 319 321 318 312 310 310 311 314
nan nan nan nan nan nan nan nan nan nan nan nan nan nan nan nan nan nan nan nan nan nan nan nan nan nan nan nan nan nan nan nan nan nan nan nan nan 257 257 256 255 246 235 246 250 255 259 254 250 250 251 249 248 255 267 276 279 283 282 285 284 283 282 281 286 290 291 292 292 293 296 298 297 297 300 301 308 314 313 311 306 303 302 305 307 310
nan nan nan nan nan nan nan nan nan nan nan nan nan nan nan nan nan nan nan nan nan nan nan nan nan nan nan nan nan nan nan nan nan nan 244 241 245 244 252 255 254 257 259 258 259 258 258 253 251 251 253 257 258 260 267 274 285 289 291 292 288 288 283 283 285 285 287 289 294 296 296 296 297 300 302 305 308 308 307 307 307 306 305 304 305 306
nan nan nan nan nan nan nan nan nan nan nan nan nan nan nan nan nan nan nan nan nan nan nan nan nan nan nan nan nan nan nan nan 268 261 260 251 260 257 255 260 261 262 260 262 261 260 258 255 252 253 254 257 258 261 270 278 280 285 286 286 286 285 280 283 284 288 292 292 289 293 296 300 304 301 297 301 307 307 306 302 300 301 301 304 304 303
nan nan nan nan nan nan nan nan nan nan nan nan nan nan nan nan nan nan nan nan nan nan nan nan nan nan nan 212 193 nan nan 263 260 264 266 269 265 261 258 256 256 256 259 259 257 256 255 253 252 251 254 256 256 263 271 275 279 282 283 279 276 275 272 272 273 277 279 284 291 294 297 301 298 301 305 310 310 308 307 304 298 297 298 299 300 298
nan nan nan nan nan nan nan nan nan nan nan nan nan nan nan nan nan nan nan nan nan nan nan nan nan nan 238 220 211 229 245 254 258 264 266 263 265 265 259 255 253 252 253 252 251 249 247 246 247 246 249 253 256 260 265 271 274 275 276 271 268 268 268 268 272 273 277 281 284 285 288 291 294 299 304 308 310 311 309 306 303 300 298 296 294 284
nan nan nan nan nan nan nan nan nan nan nan nan nan nan nan nan nan nan nan nan nan nan nan nan nan nan 242 244 238 240 248 253 255 255 257 258 260 260 257 254 254 254 254 251 247 245 244 243 243 244 249 254 257 260 265 269 267 270 270 265 261 259 258 260 261 265 270 275 280 285 289 293 296 302 306 308 310 312 311 307 304 301 298 296 289 280
nan nan nan nan nan nan nan nan nan nan nan nan nan nan nan nan nan nan nan nan nan nan nan nan 198 213 236 241 243 246 247 250 252 256 260 261 261 258 255 253 252 253 255 253 248 245 245 245 246 247 249 252 254 258 262 264 269 272 270 266 264 260 258 259 260 264 268 273 278 283 290 294 300 304 305 306 309 309 310 310 307 304 299 294 286 280
nan nan nan nan nan nan nan nan nan nan nan nan nan nan nan nan nan nan nan nan nan nan nan nan 212 225 231 228 231 242 246 248 253 257 258 259 259 256 250 250 251 253 252 249 246 244 245 244 244 247 252 254 256 260 264 268 270 271 272 268 262 260 258 256 257 263 269 274 280 286 293 298 304 308 308 310 312 312 312 310 307 307 306 301 293 284
nan nan nan nan nan nan nan nan nan nan nan nan nan nan nan nan nan nan nan nan nan nan nan nan 228 231 237 232 246 240 249 252 253 255 258 258 258 257 253 246 249 251 252 nan nan nan nan 249 251 255 256 259 262 267 273 278 281 279 277 271 266 265 262 259 260 263 269 272 279 287 294 299 305 309 311 314 315 312 312 312 313 313 310 305 295 284
nan nan nan nan nan nan nan nan nan nan nan nan nan nan nan nan nan nan nan nan nan nan nan nan 237 233 239 244 253 260 264 262 263 265 265 264 260 nan nan 251 247 nan nan nan 254 252 252 250 254 257 260 262 263 264 270 275 278 281 279 nan 269 264 265 265 267 268 270 274 282 289 290 296 304 306 307 310 310 309 311 311 311 311 311 310 303 288
nan nan nan nan nan nan nan nan nan nan nan nan nan nan nan nan nan nan nan nan nan nan nan nan 249 232 245 253 269 271 269 267 266 268 269 267 nan nan nan nan nan nan nan 250 251 251 251 253 255 259 262 264 nan nan nan nan 277 nan 272 nan nan nan nan 261 262 266 271 276 282 286 291 298 302 303 304 307 306 307 309 311 312 313 315 314 303 293
nan nan nan nan nan nan nan nan nan nan nan nan nan nan nan nan nan nan nan nan nan nan nan nan nan 242 231 255 270 273 268 266 265 265 264 265 nan nan nan nan nan nan 249 250 250 249 252 253 256 260 263 nan nan 270 272 272 nan nan nan nan nan nan nan nan nan nan 268 273 279 285 290 296 302 304 306 306 306 308 310 312 316 319 320 313 304 289
nan nan nan nan nan nan nan nan nan nan nan nan nan nan nan nan nan nan nan nan nan nan nan nan nan 229 226 228 250 264 260 259 257 259 261 265 nan nan nan nan nan 249 247 247 247 250 253 nan nan nan nan nan nan nan nan nan nan nan nan nan nan nan nan nan nan nan nan 272 276 279 286 294 301 303 304 306 308 308 308 313 318 320 318 311 303 291
nan nan nan nan nan nan nan nan nan nan nan nan nan nan nan nan nan nan nan nan nan nan nan nan nan 224 224 228 247 247 249 258 257 260 258 nan nan nan nan 251 246 245 246 248 250 nan nan nan nan nan nan nan nan nan nan nan nan nan nan nan nan nan nan nan nan nan nan nan nan 280 289 293 297 297 299 303 306 306 306 313 318 319 318 309 296 288
nan nan nan nan nan nan nan nan nan nan nan nan nan nan nan nan nan nan nan nan nan nan nan nan nan 227 226 239 249 257 260 258 261 264 256 nan nan nan 251 251 249 246 242 245 248 nan nan nan nan nan nan nan nan nan nan nan nan nan nan nan nan nan nan nan nan nan nan nan nan nan nan nan nan 294 298 301 303 304 306 312 316 322 323 318 303 286
nan nan nan nan nan nan nan nan nan nan nan nan nan nan nan nan nan nan nan nan nan nan nan nan 228 228 228 237 248 258 262 264 264 262 nan nan 245 246 248 248 248 249 250 250 251 252 nan nan nan nan nan nan nan nan nan nan nan nan nan nan nan nan nan nan nan nan nan nan nan nan nan nan nan nan 299 302 306 308 306 310 318 318 324 326 311 291
nan nan nan nan nan nan nan nan nan nan nan nan nan nan nan nan nan nan nan nan nan nan nan nan 232 240 245 251 255 261 264 261 258 258 nan nan 248 246 246 247 246 246 246 247 250 nan nan nan nan nan nan nan nan nan nan nan nan nan nan nan nan nan nan nan nan nan nan nan nan nan nan nan nan nan 296 302 307 309 309 309 314 321 326 327 323 304
nan nan nan nan nan nan nan nan nan nan nan nan nan nan nan nan nan nan nan nan nan nan nan 230 251 250 254 260 261 265 268 268 261 257 255 nan 249 247 247 247 246 246 247 248 nan nan nan nan nan nan nan nan nan nan nan nan nan nan nan nan nan nan nan nan nan nan nan nan nan nan nan nan nan 289 292 296 302 307 305 305 313 323 324 325 325 313
nan nan nan nan nan nan nan 173 167 173 nan nan nan nan nan nan nan nan nan nan nan nan nan 224 251 252 253 256 259 262 264 265 260 256 253 250 249 247 247 248 249 248 248 249 nan nan nan nan nan nan nan nan nan nan nan nan nan nan nan nan nan nan nan nan nan nan nan nan nan nan nan nan nan 286 283 291 292 296 300 299 301 310 318 323 314 309
nan nan 208 nan 194 nan nan 184 175 176 178 nan nan nan nan nan nan 214 nan nan 205 nan 233 237 245 248 249 250 253 254 258 258 255 252 247 247 248 248 248 249 249 249 250 250 nan nan nan nan nan nan nan nan nan nan nan nan nan nan nan nan nan nan nan nan nan nan nan nan nan nan nan nan nan nan nan nan nan 284 286 289 296 298 301 311 314 310
nan nan 201 nan nan nan nan 189 188 181 182 nan nan nan nan 175 200 nan nan 216 221 227 240 239 225 237 240 247 244 244 244 248 246 245 242 nan nan 247 247 248 249 250 250 nan nan nan nan nan nan nan nan nan nan nan nan nan nan nan nan nan nan nan nan nan nan nan nan nan nan nan nan nan nan nan nan nan nan nan nan nan nan nan nan 300 304 302
nan nan 192 202 nan nan nan nan 189 nan 197 199 194 nan nan 198 202 213 230 226 224 229 233 242 245 238 229 240 240 238 240 240 243 248 245 nan 245 nan 247 249 249 249 249 nan nan nan nan nan nan nan nan nan nan nan nan nan nan nan nan nan nan nan nan nan nan nan nan nan nan nan nan nan nan nan nan nan nan nan nan nan nan nan nan nan nan nan
nan nan 206 202 nan nan nan 210 nan 202 200 210 197 200 199 nan 210 207 nan 213 226 232 240 240 244 239 237 239 240 240 242 245 248 249 246 nan nan nan nan nan nan nan nan nan nan nan nan nan nan nan nan nan nan nan nan nan nan nan nan nan nan nan nan nan nan nan nan nan nan nan nan nan nan nan nan nan nan nan nan nan nan nan nan nan nan nan
nan nan nan nan nan nan nan nan 219 205 208 215 210 203 203 216 220 220 219 215 228 240 236 227 235 240 244 248 248 242 242 235 238 243 247 nan nan nan nan nan nan nan nan nan nan nan nan nan nan nan nan nan nan nan nan nan nan nan nan nan nan nan nan nan nan nan nan nan nan nan nan nan nan nan nan nan nan nan nan nan nan nan nan nan nan nan
nan nan 211 nan nan nan nan 225 nan 217 214 nan 212 nan nan 219 224 226 221 219 216 217 222 226 249 246 242 242 249 237 231 225 219 218 224 nan nan nan nan nan nan nan nan nan nan nan nan nan nan nan nan nan nan nan nan nan nan nan nan nan nan nan nan nan nan nan nan nan nan nan nan nan nan nan nan nan nan nan nan nan nan nan nan nan nan nan
nan nan nan nan nan nan 226 229 223 226 nan 217 211 nan 220 230 231 230 224 221 223 229 235 243 nan 249 241 239 235 225 222 222 220 225 nan nan nan nan nan nan nan nan nan nan nan nan nan nan nan nan nan nan nan nan nan nan nan nan nan nan nan nan nan nan nan nan nan nan nan nan nan nan nan nan nan nan nan nan nan nan nan nan nan nan nan nan
nan nan nan nan nan nan nan 217 nan nan nan nan 219 213 223 226 233 235 228 225 223 227 237 243 nan nan nan 254 251 248 245 233 228 220 nan nan nan nan nan nan nan nan nan nan nan nan nan nan nan nan nan nan nan nan nan nan nan nan nan nan nan nan nan nan nan nan nan nan nan nan nan nan nan nan nan nan nan nan nan nan nan nan nan nan nan nan
206 207 nan nan nan nan nan 219 nan nan nan nan 226 221 227 230 230 nan nan nan 221 224 nan 241 243 253 261 261 262 262 255 240 232 221 218 233 nan nan nan nan nan 240 nan nan nan nan nan nan nan nan nan nan nan nan nan nan nan nan nan nan nan nan nan nan nan nan nan nan nan nan nan nan nan nan nan nan nan nan nan nan nan nan nan nan nan nan
210 210 206 nan nan 213 223 nan nan nan nan nan nan nan 228 nan 214 nan nan 229 230 230 238 243 250 256 261 nan nan 260 254 240 229 223 225 nan nan nan nan nan nan nan nan nan nan nan nan nan nan nan nan nan nan nan nan nan nan nan nan nan nan nan nan nan nan nan nan nan nan nan nan nan nan nan nan nan nan nan nan nan nan nan nan nan nan nan
215 nan nan nan nan nan nan nan nan nan nan nan 229 nan nan nan 239 nan nan nan 239 244 244 252 257 260 nan nan nan 255 243 241 238 241 243 246 nan nan nan nan nan nan nan nan nan nan nan nan nan nan nan nan nan nan nan nan nan nan nan nan nan nan nan nan nan nan nan nan nan nan nan nan nan nan nan nan nan nan nan nan nan nan nan nan nan nan
nan nan nan nan nan nan nan nan nan nan nan nan nan nan nan 216 nan nan nan nan nan nan nan nan nan nan nan nan 260 247 240 253 263 261 260 nan nan nan nan nan nan nan nan nan nan nan nan nan nan nan nan nan nan nan nan nan nan nan nan nan nan nan nan nan nan nan nan nan nan nan nan nan nan nan nan nan nan nan nan nan nan nan nan nan nan nan
nan nan nan nan nan nan nan nan nan nan nan 227 nan nan nan nan 203 nan nan nan nan nan nan nan nan nan nan nan 255 240 227 247 261 262 nan 258 nan nan nan nan nan nan nan nan nan nan nan nan nan nan nan nan nan nan nan nan nan nan nan nan nan nan nan nan nan nan nan nan nan nan nan nan nan nan nan nan nan nan nan nan nan nan nan nan nan nan
nan nan nan nan nan nan nan nan nan nan nan nan nan nan nan nan 211 nan nan nan nan nan nan nan nan nan nan nan nan 245 247 256 263 259 260 nan nan nan nan nan nan nan nan nan nan nan nan nan nan nan nan nan nan nan nan nan nan nan nan nan nan nan nan nan nan nan nan nan nan nan nan nan nan nan nan nan nan nan nan nan nan nan nan nan nan nan
nan nan nan nan nan nan nan nan nan nan nan nan nan nan nan nan nan nan nan nan nan nan nan nan nan nan nan nan nan nan 258 nan nan 265 nan nan nan nan nan nan nan nan nan nan nan nan nan nan nan nan nan nan nan nan nan nan nan nan nan nan nan nan nan nan nan nan nan nan nan nan nan nan nan nan nan nan nan nan nan nan nan nan nan nan nan nan
nan nan nan nan nan nan nan nan nan nan nan nan nan nan nan nan nan nan nan nan nan nan nan nan nan nan nan nan nan nan 262 nan nan nan nan nan nan nan 259 nan nan nan nan nan nan nan nan nan nan nan nan nan nan nan nan nan nan nan nan nan nan nan nan nan nan nan nan nan nan nan nan nan nan nan nan nan nan nan nan nan nan nan nan nan nan nan
199 nan nan nan nan nan nan nan nan nan nan nan nan nan nan nan nan nan nan nan nan nan nan nan nan nan nan nan nan nan nan nan nan nan nan 261 nan 257 255 253 nan nan nan nan nan nan nan nan nan nan nan nan nan nan nan nan nan nan nan nan nan nan nan nan nan nan nan nan nan nan nan nan nan nan nan nan nan nan nan nan nan nan nan nan nan nan
nan nan nan nan nan nan nan nan nan nan nan nan nan nan nan nan nan nan nan nan nan nan nan nan nan nan nan nan nan nan nan nan nan nan nan nan nan 256 254 nan nan nan nan nan nan nan nan nan nan nan nan nan nan nan nan nan nan nan nan nan nan nan nan nan nan nan nan nan nan nan nan nan nan nan nan nan nan nan nan nan nan nan nan nan nan nan
nan nan nan nan nan nan nan nan nan nan nan nan nan nan nan nan nan nan nan nan nan nan nan nan nan nan nan nan nan nan nan nan nan nan nan nan nan nan nan nan nan nan nan nan nan nan nan nan nan nan nan nan nan nan nan nan nan nan nan nan nan nan nan nan nan nan nan nan nan nan nan nan nan nan nan nan nan nan nan nan nan nan nan nan nan nan
nan nan nan nan nan nan nan nan nan nan nan nan nan nan nan nan nan nan nan nan nan nan nan nan nan nan nan nan nan nan nan nan nan nan nan nan nan nan nan nan nan nan nan nan nan nan nan nan nan nan nan nan nan nan nan nan nan nan nan nan nan nan nan nan nan nan nan nan nan nan nan nan nan nan nan nan nan nan nan nan nan nan nan nan nan nan
nan nan nan nan nan nan nan nan nan nan nan nan nan nan nan nan nan nan nan nan nan nan nan nan nan nan nan nan nan nan nan nan nan nan nan nan nan nan nan nan nan nan nan nan nan nan nan nan nan nan nan nan nan nan nan nan nan nan nan nan nan nan nan nan nan nan nan nan nan nan nan nan nan nan nan nan nan nan nan nan nan nan nan nan nan nan
nan nan nan nan nan nan nan nan nan nan nan nan nan nan nan nan nan nan nan nan nan nan nan nan nan nan nan nan nan nan nan nan nan nan nan nan nan nan nan nan nan nan nan nan nan nan nan nan nan nan nan nan nan nan nan nan nan nan nan nan nan nan nan nan nan nan nan nan nan nan nan nan nan nan nan nan nan nan nan nan nan nan nan nan nan nan
nan nan nan nan nan nan nan nan nan nan nan nan nan nan nan nan nan nan nan nan nan nan nan nan nan nan nan nan nan nan nan nan nan nan nan nan nan nan nan nan nan nan nan nan nan nan nan nan nan nan nan nan nan nan nan nan nan nan nan nan nan nan nan nan nan nan nan nan nan nan nan nan nan nan nan nan nan nan nan nan nan nan nan nan nan nan